CDT,Max TemperatureF,Mean TemperatureF,Min TemperatureF,Max Dew PointF,MeanDew PointF,Min DewpointF,Max Humidity, Mean Humidity, Min Humidity, Max Sea Level PressureIn, Mean Sea Level PressureIn, Min Sea Level PressureIn, Max VisibilityMiles, Mean VisibilityMiles, Min VisibilityMiles, Max Wind SpeedMPH, Mean Wind SpeedMPH, Max Gust SpeedMPH,PrecipitationIn, CloudCover, Events, WindDirDegrees
2013-6-1,87,79,70,72,68,64,93,74,55,30.08,30.02,29.95,10,10,9,18,5,25,0.57,4,Rain-Thunderstorm,131
2013-6-2,86,78,70,72,68,62,100,74,48,29.99,29.93,29.87,10,10,10,14,5,20,0.26,4,Rain-Thunderstorm,252
2013-6-3,86,77,68,68,66,62,97,73,48,29.97,29.92,29.87,10,10,10,8,3,,0.00,3,,316
2013-6-4,88,77,65,69,65,62,93,68,43,30.00,29.96,29.93,10,10,10,10,3,15,0.00,1,,37
2013-6-5,85,77,69,72,69,65,93,79,65,30.01,29.95,29.88,10,10,10,20,3,25,0.93,5,Rain-Thunderstorm,69
2013-6-6,84,76,67,71,67,64,93,76,58,29.89,29.82,29.73,10,10,10,7,1,9,0.00,3,,74
2013-6-7,82,74,66,70,67,64,100,91,69,29.91,29.81,29.70,10,10,10,16,3,32,0.41,6,Rain-Thunderstorm,237
2013-6-8,83,74,65,71,66,64,100,78,55,30.04,29.97,29.88,10,10,10,8,3,10,0.00,4,,231
2013-6-9,84,77,70,70,68,66,90,77,63,30.08,30.02,29.95,10,10,10,16,5,22,0.00,4,,175
2013-6-10,85,78,71,72,70,66,93,77,61,30.03,29.99,29.93,10,10,10,16,7,21,0.39,6,Rain-Thunderstorm,233
2013-6-11,91,82,72,74,72,70,94,73,52,30.09,30.02,29.96,10,10,10,16,7,20,0.00,3,,243
2013-6-12,92,82,72,74,72,69,100,75,49,30.07,30.02,29.97,10,10,10,12,5,16,0.00,1,,241
2013-6-13,91,81,70,75,71,69,93,73,52,29.98,29.90,29.77,10,10,10,22,7,29,0.01,2,Rain-Thunderstorm,265
2013-6-14,85,76,66,71,62,56,93,67,40,30.00,29.93,29.86,10,10,10,14,5,20,0.00,0,,34
2013-6-15,87,75,63,67,62,58,93,65,37,30.10,30.05,30.00,10,10,10,12,4,15,0.00,0,,88
2013-6-16,89,79,69,72,68,61,93,72,50,30.14,30.05,29.98,10,10,10,13,5,17,0.60,4,Rain-Thunderstorm,73
2013-6-17,85,77,69,73,69,67,97,80,62,30.05,29.99,29.95,10,10,10,15,4,22,0.07,4,Rain-Thunderstorm,77
2013-6-18,85,77,69,74,71,68,100,85,69,29.97,29.92,29.87,10,10,10,16,5,26,1.03,6,Rain-Thunderstorm,237
2013-6-19,86,78,69,72,68,64,100,76,51,30.06,29.99,29.93,10,10,10,12,3,18,0.00,4,,356
2013-6-20,86,77,67,69,66,63,100,74,48,30.17,30.12,30.06,10,10,10,13,4,17,0.00,0,,87
2013-6-21,86,77,67,69,65,62,93,69,45,30.21,30.16,30.12,10,10,10,10,4,14,0.00,0,,101
2013-6-22,87,78,68,68,64,60,93,68,42,30.19,30.14,30.06,10,10,10,9,3,16,0.00,0,,72
2013-6-23,86,78,69,71,67,65,90,73,55,30.20,30.13,30.07,10,10,10,8,4,10,0.00,3,,79
2013-6-24,84,77,69,72,70,68,100,85,69,30.22,30.17,30.12,10,10,10,10,2,15,2.24,5,Rain-Thunderstorm,134
2013-6-25,88,78,68,74,70,67,100,79,57,30.16,30.10,30.02,10,10,10,7,2,,0.00,1,Thunderstorm,239
2013-6-26,89,80,70,74,72,69,93,76,59,30.10,30.01,29.93,10,10,10,13,4,16,0.00,2,,234
2013-6-27,91,82,73,79,74,71,97,81,64,29.99,29.92,29.81,10,10,10,15,7,22,0.10,3,Rain-Thunderstorm,250
2013-6-28,90,82,73,76,73,69,94,73,52,29.86,29.78,29.70,10,10,10,16,7,22,0.08,3,Rain-Thunderstorm,238
2013-6-29,88,79,70,72,69,58,93,65,36,29.76,29.72,29.66,10,10,10,14,5,18,0.00,4,,243
2013-6-30,88,78,67,69,64,54,100,66,31,29.78,29.73,29.70,10,10,10,12,3,15,0.00,2,,237